KSM1-D

导读

KSM1-D卫星于2020年11月7日由卢森堡(LU)发射升空。作为卢森堡航天布局的重要组成部分,该卫星承担着特定空间任务,是欧洲微小卫星技术应用的实践案例,验证了小卫星平台技术与任务载荷的集成能力,为卢森堡开展空间观测、技术试验等空间活动提供支撑,也体现了欧洲小国参与航天开发的创新路径。

Basic Information
目录编号:
46907
目录名称:
KSM1-D
国际标识:
2020-081C
轨道中心:
EARTH
卫星名称:
KSM1-D
卫星全名:
--
卫星状态:
在轨 (已飞行2135 天)
发射日期:
2020-11-07 UTC
国别 :
(LU)
星等 :
--
This satellite is enrolled in the Space Conjunction Data Service (SCDS) and the current flight risk assessment level is: High Risk
Orbit Information
数据来源 国际轨道数据
星历时间: 2026-09-12T14:57:19+0800
6小时前
查看轨道信息
半长轴: 6866.506km
偏心率: 0.0004269
轨道倾角: 36.895°
近地点辐角 252.410°
升交点赤经 251.434°
平近点角 107.618°
近地点: 485.437km
远地点: 491.301km
周期: 94.376分钟
每日圈数: 15.258053
Detailed Information
使用方式:
暂无
2D Orbit Map
3D Orbit Map
Orbit Altitude Analysis Chart
Orbit Inclination Analysis Chart
Orbit Comprehensive Analysis Chart
View Comprehensive Chart
Conjunction Data List
Event ID Objects TCA Miss Dist (km) Collision Risk Probability Collision Risk Index (CRI) Action
CDM_260914-122704-690705-398021
KSM1-D (46907)
2026-09-14T
12:27:40+0000
0.505 km
远距离
1.626476E-4 高风险 0.79
CDM_260914-202204-690705-870321
KSM1-D (46907)
2026-09-14T
20:22:02+0000
1.759 km
极远距离
3.88752E-6 低风险 0.47
CDM_260913-192604-690706-728824
KSM1-D (46907)
2026-09-13T
19:26:37+0000
1.686 km
极远距离
3.856306E-6 低风险 0.47
CDM_260913-234302-159404-690722
KSM1-D (46907)
2026-09-13T
23:43:49+0000
1.900 km
极远距离
2.206087E-6 低风险 0.42
CDM_260913-012704-690706-652621
KSM1-D (46907)
2026-09-13T
01:27:31+0000
2.726 km
极远距离
7.709643E-7 极低风险 0.33
CDM_260912-142004-690705-879723
KSM1-D (46907)
2026-09-12T
14:20:47+0000
2.862 km
极远距离
7.681132E-7 极低风险 0.33
CDM_260914-120004-690706-652321
KSM1-D (46907)
2026-09-14T
12:00:42+0000
2.994 km
极远距离
6.934837E-7 极低风险 0.32
CDM_260912-173204-690705-974021
KSM1-D (46907)
2026-09-12T
17:32:24+0000
2.912 km
极远距离
6.31814E-7 极低风险 0.31
Miss Distance Evolution Trend with All Objects
Collision Probability Evolution Trend with All Objects